Overview Statistics Trail Chart Weather Telemetry Raw packets
 

This is the latest recevied weather packets stored in our database for station/object OK2JV-13. If no packets are shown the sender has not sent any weather packets the latest 10 day(s).

<< 19 20 21 22 23 24 25 >>
Time Temp. Humidity Pressure Rain* Wind** Luminosity Snow
1788183084 23.89° C 50% 1014 hPa - - - -
1788182480 23.89° C 49% 1014 hPa - - - -
1788181875 23.33° C 52% 1013.9 hPa - - - -
1788181270 22.78° C 52% 1014.1 hPa - - - -
1788180668 23.33° C 51% 1013.9 hPa - - - -
1788180063 23.89° C 52% 1013.9 hPa - - - -
1788179457 23.89° C 52% 1013.7 hPa - - - -
1788178852 23.89° C 53% 1014 hPa - - - -
1788178249 23.33° C 56% 1014 hPa - - - -
1788177645 22.78° C 61% 1013.9 hPa - - - -
1788177041 22.22° C 65% 1014 hPa - - - -
1788176439 22.22° C 65% 1013.9 hPa - - - -
1788175832 22.22° C 68% 1013.9 hPa - - - -
1788175228 21.67° C 68% 1013.9 hPa - - - -
1788174624 21.11° C 71% 1013.9 hPa - - - -
1788174020 20° C 72% 1013.8 hPa - - - -
1788173418 19.44° C 72% 1013.8 hPa - - - -
1788172812 19.44° C 70% 1014 hPa - - - -
1788172208 19.44° C 70% 1013.9 hPa - - - -
1788171603 19.44° C 68% 1013.8 hPa - - - -
1788171000 19.44° C 68% 1013.9 hPa - - - -
1788170396 19.44° C 69% 1013.8 hPa - - - -
1788169794 18.89° C 69% 1013.8 hPa - - - -
1788169188 18.89° C 69% 1013.9 hPa - - - -
1788168584 19.44° C 70% 1013.7 hPa - - - -

* Rain since midnight (hover to see other rain measurements)
** Current wind speed in m/s (hover to see current wind gust speed)